Regional Weather Roundup
Issued by NWS

Home | Current Version | Previous Version | Graphics & Text | Print | Product List | Glossary On
Versions: 1 2 3 4 5 6 7 8 9 10 11 12 13 14 15 16 17 18 19 20 21 22 23 24 25 26 27 28 29 30 31 32 33 34 35 36 37 38 39 40 41 42 43 44 45 46 47 48 49 50
000
ASUS43 KFSD 281910
RWRSD

WEATHER ROUNDUP FOR SOUTH DAKOTA
NATIONAL WEATHER SERVICE SIOUX FALLS SD
200 PM CDT TUE JUL 28 2015

NOTE: "FAIR" INDICATES FEW OR NO CLOUDS BELOW 12,000 FEET WITH NO
SIGNIFICANT WEATHER AND/OR OBSTRUCTIONS TO VISIBILITY.


SDZ001>005-009-010-012>017-282000-
NORTHWEST AND NORTH CENTRAL SOUTH DAKOTA

CITY           SKY/WX    TMP DP  RH WIND       PRES   REMARKS
BUFFALO          N/A     66  43  43 W45G61    29.89R
FAITH            N/A     74  41  30 W32G49    29.93S
MOBRIDGE       MOSUNNY   76  51  41 W30G40    29.83R
$$

SDZ012>016-024>037-041>051-057-063-072>074-282000-
SOUTHWEST AND SOUTH CENTRAL SOUTH DAKOTA

CITY           SKY/WX    TMP DP  RH WIND       PRES   REMARKS
RAPID CTY ARPT SUNNY     75  42  30 W21G30    30.02S
PIERRE         SUNNY     80  46  30 W21G33    29.90S
CUSTER         MOSUNNY   62  37  39 NW16G24   30.13R
ELLSWORTH AFB  MOSUNNY   75  41  29 W18G26    30.01
PHILIP         SUNNY     79  46  31 W23G31    29.97R
PINE RIDGE     SUNNY     74  42  31 W18G24    30.07S
SPEARFISH      FAIR      68  39  34 W21G40    30.05S
WINNER         FAIR      79  47  32 NW22G29   29.98S
$$

SDZ004>011-016>023-039-040-282000-
NORTHEAST SOUTH DAKOTA

CITY           SKY/WX    TMP DP  RH WIND       PRES   REMARKS
ABERDEEN       SUNNY     77  53  43 SW24G30   29.82S
WATERTOWN      SUNNY     75  56  51 W20       29.87R
BROOKINGS      SUNNY     75  59  57 W21       29.89S
SISSETON         N/A     76  57  51 W21G30    29.78R
$$

SDZ017-020-022-023-036>040-048>070-282000-
SOUTHEAST SOUTH DAKOTA

CITY           SKY/WX    TMP DP  RH WIND       PRES   REMARKS
SIOUX FALLS    MOSUNNY   78  65  63 NW13G21   29.88R
HURON          SUNNY     77  56  48 W18G24    29.88S
CHAMBERLAIN    SUNNY     77  51  40 W18G24    29.95R
MITCHELL       SUNNY     78  57  48 NW17      29.92R
YANKTON        SUNNY     79  59  50 MISG      29.89F
$$

ABBREVIATIONS USED IN REMARKS
   TC - TEMPERATURE IN CELSIUS
  WCI - WIND CHILL INDEX
   HX - HEAT INDEX
  VSB - VISIBILITY




USA.gov is the U.S. government's official web portal to all federal, state and local government web resources and services.